Temperature
17 17 17 17 17 17 17 17 17 16 16 16 16 16 16 16 16 16 16 16 16 16 16 16 15 15 15 15 15 15 15 14 14 14 14 14 14 13
17 17 17 17 17 17 17 17 17 17 17 17 17 17 16 16 16 16 16 16 16 16 16 16 16 15 15 15 15 15 14 14 14 14 14 14 14 13
17 17 17 17 17 17 17 17 17 17 17 17 16 16 16 16 16 16 16 16 16 16 16 16 15 15 15 15 15 14 14 14 14 14 14 14 13 13
17 17 17 17 17 17 17 17 17 17 17 17 17 16 16 16 16 16 16 16 16 16 16 15 15 15 15 15 15 14 14 14 14 14 14 13 13 13
17 17 17 17 17 17 17 17 17 17 16 16 16 16 16 16 16 16 16 16 16 16 15 15 15 15 15 15 15 14 14 14 14 14 14 13 13 13
17 17 17 17 17 16 16 16 16 16 16 16 16 16 16 16 16 16 16 16 15 15 15 15 15 15 15 15 15 14 14 14 14 14 14 13 13 13
17 17 17 16 16 16 16 16 16 16 16 16 16 16 16 15 15 15 15 15 15 15 15 15 15 15 15 15 14 14 14 14 14 14 14 13 13 13
17 16 16 16 16 16 16 16 16 16 16 16 16 16 16 15 15 15 15 15 15 15 15 15 15 15 15 15 15 14 14 14 14 14 13 13 13 13
16 16 16 16 16 16 16 16 16 16 16 16 16 16 15 15 15 15 15 15 15 15 15 15 15 15 15 15 14 14 14 14 14 14 13 13 13 12
16 16 16 16 16 16 16 16 16 16 16 15 15 15 15 15 15 15 15 15 15 15 14 14 14 14 14 14 14 14 14 14 14 13 13 13 12 12
16 16 16 16 16 16 16 16 16 16 15 15 15 15 15 15 15 15 15 14 14 14 14 14 14 14 14 14 14 14 14 14 13 13 13 12 12 12
16 16 16 16 16 15 15 15 15 15 15 15 15 15 15 15 15 15 15 14 14 14 14 14 14 14 14 14 14 14 13 13 13 13 13 12 12 12
16 16 16 16 15 15 15 15 15 15 15 15 15 15 15 15 15 15 14 14 14 14 14 14 14 13 13 13 13 13 13 13 13 13 12 12 12 12
16 16 15 15 15 15 15 15 15 15 15 15 15 15 15 15 15 15 14 14 14 14 14 13 13 13 13 13 13 13 13 12 12 12 12 12 12 11
16 15 15 15 15 15 15 15 15 14 14 14 14 15 15 14 14 14 14 14 14 14 13 13 13 13 13 13 13 12 12 12 12 12 12 12 12 11
15 15 15 15 15 14 14 14 14 14 14 14 14 14 14 14 14 14 14 14 13 13 13 13 13 13 13 13 12 12 12 12 12 12 12 12 11 11
15 15 15 15 15 14 14 14 14 14 14 14 14 14 14 14 14 14 13 13 13 13 13 13 13 12 12 12 12 12 12 12 11 11 11 11 11 11
15 15 15 15 14 14 14 14 14 14 14 14 14 14 14 14 14 13 13 13 13 13 12 12 12 12 12 12 12 12 12 12 11 11 11 11 11 11
14 14 14 14 14 14 14 14 14 14 14 14 14 14 13 13 13 13 13 13 13 12 12 12 12 12 11 11 12 12 11 11 11 11 11 11 11 11
14 14 14 14 14 14 14 14 13 13 13 13 13 13 13 13 13 13 12 12 12 12 12 12 12 12 11 11 11 11 11 11 11 11 11 11 11 11
14 14 14 14 14 13 13 13 13 13 13 13 13 13 13 12 12 12 12 12 12 12 11 12 12 11 11 11 11 11 11 11 11 11 11 11 10 10
13 13 13 13 13 13 13 13 13 12 12 12 12 12 12 12 12 12 12 11 11 11 11 11 11 11 11 10 10 10 10 10 10 10 10 10 10 10
13 13 13 13 13 12 12 12 12 12 12 12 12 12 12 11 11 11 11 11 11 11 11 11 11 10 10 10 10 10 10 10 10 10 10 10 10 10
Wind_Speed
1 1 1 1 1 2 3 4 4 2 3 3 3 3 5 7 9 9 9 11 11 11 11 11 10 9 9 9 8 8 8 7 6 6 5 5 5 5
1 1 1 1 1 1 2 2 3 4 3 4 4 3 4 5 8 9 10 10 11 11 11 11 11 10 10 10 10 9 9 8 8 7 7 7 6 6
1 1 1 1 1 1 1 2 2 3 3 3 3 2 3 3 4 7 8 8 9 12 12 12 12 12 12 12 11 10 10 10 9 9 8 8 8 7
3 2 2 1 1 1 1 2 2 3 3 3 2 1 3 4 4 4 5 7 8 11 13 13 13 13 13 13 13 12 11 11 11 10 9 9 8 8
3 3 3 2 2 2 2 2 2 2 2 3 3 2 1 2 1 3 4 3 6 8 12 13 14 14 14 14 14 13 13 12 11 11 10 10 9 9
3 3 3 3 3 3 2 2 2 2 2 2 2 2 1 1 2 2 2 2 3 4 6 8 10 12 14 14 14 14 14 13 13 12 11 11 10 9
2 3 3 3 4 3 2 2 2 2 2 2 2 1 2 1 3 3 3 2 3 2 2 4 5 5 8 12 15 15 15 15 15 14 12 12 11 10
3 2 2 2 3 3 4 4 4 4 4 3 3 3 4 4 3 3 2 1 2 2 3 3 3 4 6 9 13 15 16 16 15 14 13 12 11 10
4 4 3 2 2 2 3 3 4 5 7 6 5 6 5 5 5 3 3 4 4 3 2 3 3 4 6 8 12 14 15 15 14 13 13 12 12 11
5 5 4 3 3 3 2 2 3 4 4 5 6 7 6 6 6 6 5 3 3 2 3 3 3 4 4 6 10 14 14 14 13 13 12 12 12 11
5 5 5 5 5 5 3 2 3 5 5 6 7 8 8 8 6 3 2 2 3 3 3 3 2 2 2 3 6 10 12 13 13 13 12 12 11 10
3 4 6 7 7 7 5 4 4 5 3 3 3 5 5 6 7 6 6 4 3 3 3 3 2 2 2 2 2 4 6 8 11 11 12 12 11 7
4 4 5 7 8 8 6 5 7 5 3 3 3 3 3 3 4 5 6 5 5 5 4 4 3 2 3 2 2 2 3 3 5 7 10 12 12 10
6 5 5 8 8 8 6 6 7 4 2 2 3 4 4 4 4 4 6 7 7 7 6 5 4 4 3 3 3 2 2 3 4 4 5 7 9 12
5 6 6 7 6 5 7 7 5 3 3 3 5 5 5 5 3 3 3 4 5 6 6 6 5 4 4 4 4 3 2 2 4 4 4 4 5 5
4 4 4 4 4 5 4 4 4 4 5 5 5 5 3 3 3 3 3 2 2 3 3 5 6 6 5 5 4 4 4 3 3 4 4 4 5 6
3 1 1 1 2 3 3 3 3 3 4 5 5 4 4 4 4 3 3 2 3 3 3 2 2 3 4 4 3 4 4 4 4 5 4 4 5 6
4 3 4 4 5 5 5 4 4 5 5 5 5 5 5 5 4 3 2 3 4 4 4 3 1 0 1 2 5 5 4 4 4 5 4 4 5 5
4 4 5 5 5 5 5 5 5 6 5 5 5 5 5 5 4 4 3 3 4 4 4 3 3 3 4 5 5 5 5 4 3 3 4 5 5 5
4 5 5 5 5 5 5 5 5 5 5 5 5 5 5 5 5 4 4 5 5 5 4 4 4 5 7 6 4 3 5 5 4 4 4 3 3 4
5 5 5 5 4 5 5 5 5 5 5 5 5 5 5 4 5 5 5 6 5 5 6 6 7 7 3 1 1 3 3 6 7 5 4 3 3 2
5 5 5 5 5 5 4 4 4 5 5 5 5 5 4 4 5 6 5 5 5 6 6 5 3 2 2 3 4 4 4 3 4 6 6 6 5 5
5 5 4 4 4 4 4 4 4 4 4 4 4 4 4 4 5 5 5 5 5 5 4 4 2 2 3 4 4 4 4 4 3 2 3 5 7 8
Wind_Direction
193 208 226 253 195 186 172 165 162 191 250 250 240 234 207 202 206 201 207 212 214 216 215 214 215 215 213 212 214 216 216 216 217 220 221 222 224 228
198 181 235 244 215 220 188 181 169 171 214 238 233 230 210 211 208 203 209 212 218 220 219 218 217 217 216 215 218 219 218 218 217 219 222 224 227 231
233 195 213 202 214 247 207 187 181 166 194 251 247 229 199 218 205 209 218 218 224 224 222 221 223 224 221 220 221 222 223 222 221 221 224 227 228 230
223 197 210 200 218 237 204 203 205 193 181 216 246 221 217 216 206 211 220 224 227 227 225 226 227 227 225 225 225 225 225 225 225 224 225 227 227 229
205 199 214 190 220 245 227 215 221 218 183 185 225 225 232 216 194 229 230 233 232 233 231 233 232 231 230 229 226 224 224 225 226 225 225 225 225 225
209 208 208 197 207 221 234 225 213 201 188 185 216 232 236 237 173 212 246 245 243 238 228 228 231 233 232 229 227 226 226 227 227 225 224 222 222 221
226 222 221 209 206 207 214 212 199 197 197 200 219 229 234 206 216 212 223 246 262 232 220 236 225 230 235 234 231 229 226 226 225 223 222 220 220 221
218 231 233 213 218 214 214 211 200 200 206 207 211 216 229 224 213 206 197 207 268 240 197 243 213 235 241 233 232 229 227 225 224 222 220 219 218 220
208 216 233 236 216 224 239 245 245 231 211 201 208 219 217 216 199 204 207 213 234 230 190 246 235 242 244 240 235 229 226 224 222 219 216 217 217 218
214 213 215 228 232 204 219 270 278 271 247 220 217 223 223 215 202 203 207 223 261 253 185 219 237 246 256 249 241 231 227 223 219 218 217 218 216 216
226 219 211 213 222 194 187 229 274 288 283 254 235 232 225 215 198 167 177 188 258 262 207 194 229 249 262 258 250 234 227 224 220 217 215 215 215 214
244 234 219 217 218 197 192 203 240 262 279 301 278 259 244 232 211 196 195 203 227 251 224 187 213 197 269 266 246 235 226 227 221 217 215 212 206 203
226 236 238 230 223 216 209 213 232 238 248 253 267 269 263 247 231 216 204 202 213 237 217 177 193 190 204 254 265 231 208 214 214 218 220 217 210 200
221 230 237 233 227 226 227 238 240 236 238 253 268 267 260 256 247 230 220 217 220 227 217 189 198 200 199 225 252 254 229 216 201 206 217 218 219 219
227 227 239 238 230 235 241 241 233 221 224 243 253 256 252 248 247 245 238 225 231 239 228 212 204 205 199 215 227 226 235 232 204 202 208 206 208 207
242 239 240 244 238 242 253 250 234 224 222 235 250 258 259 252 241 233 231 220 231 270 254 229 214 201 214 220 214 225 217 212 211 211 205 218 218 216
193 191 230 233 238 255 263 260 248 239 241 246 246 254 252 246 251 241 224 216 222 244 266 274 246 217 210 204 216 231 228 227 217 209 203 225 233 222
162 199 220 222 226 235 242 250 246 244 243 242 241 242 242 240 246 243 223 215 227 235 240 242 219 287 313 265 220 222 230 228 223 209 200 216 241 237
183 217 224 226 231 233 236 239 243 244 240 236 238 240 242 240 237 234 229 229 236 238 238 227 212 207 234 257 258 225 216 226 219 218 215 215 231 238
217 224 231 233 234 236 238 241 247 250 244 242 240 239 238 238 237 234 229 230 235 238 241 234 226 222 226 238 245 247 216 207 213 225 232 232 242 255
230 234 238 240 242 241 240 241 245 249 249 242 242 240 238 237 240 238 233 234 233 235 239 244 242 231 226 175 224 263 251 221 210 211 213 216 235 238
243 242 245 246 244 243 243 244 249 253 252 248 245 240 236 234 238 235 231 232 235 237 245 252 249 207 191 208 233 249 259 264 240 225 213 204 196 207
247 245 243 246 244 241 238 238 241 249 248 247 247 241 234 237 241 235 230 230 234 239 243 246 239 218 218 220 229 243 248 246 233 230 255 261 239 238
Height
1526 1527 1527 1527 1527 1528 1528 1528 1529 1528 1528 1528 1528 1528 1528 1529 1529 1529 1529 1530 1530 1530 1530 1531 1531 1531 1531 1531 1531 1531 1531 1531 1531 1531 1531 1531 1531 1531
1525 1525 1525 1525 1525 1526 1526 1526 1527 1527 1526 1525 1526 1526 1526 1527 1527 1527 1528 1528 1528 1528 1529 1529 1529 1529 1529 1528 1528 1529 1529 1529 1529 1529 1529 1528 1528 1528
1523 1523 1523 1523 1523 1524 1524 1524 1524 1525 1524 1524 1524 1524 1524 1525 1525 1525 1526 1526 1526 1526 1526 1527 1527 1527 1527 1527 1526 1526 1526 1526 1526 1526 1526 1526 1525 1525
1521 1521 1521 1521 1521 1522 1522 1522 1522 1522 1523 1522 1522 1522 1522 1522 1523 1523 1523 1523 1523 1524 1524 1524 1524 1524 1524 1524 1524 1524 1524 1523 1523 1523 1523 1522 1522 1522
1519 1519 1519 1519 1519 1519 1519 1519 1519 1520 1520 1520 1519 1519 1520 1520 1520 1520 1520 1520 1520 1521 1521 1521 1521 1521 1521 1521 1521 1521 1520 1520 1520 1520 1519 1519 1518 1518
1517 1517 1518 1517 1517 1517 1517 1517 1517 1517 1517 1517 1517 1517 1517 1517 1517 1517 1517 1517 1517 1517 1518 1518 1518 1518 1517 1517 1517 1517 1517 1517 1516 1516 1515 1515 1514 1514
1515 1515 1515 1515 1515 1515 1515 1515 1514 1514 1514 1514 1514 1514 1514 1514 1514 1514 1514 1514 1514 1514 1514 1514 1514 1513 1514 1513 1513 1513 1513 1512 1512 1512 1511 1511 1511 1511
1512 1512 1513 1513 1513 1513 1512 1512 1512 1511 1510 1510 1510 1510 1510 1511 1511 1511 1511 1511 1510 1511 1510 1510 1510 1509 1509 1509 1509 1509 1509 1508 1508 1508 1507 1507 1507 1507
1509 1510 1510 1510 1510 1510 1509 1509 1508 1508 1507 1507 1507 1506 1507 1507 1508 1508 1507 1507 1507 1507 1507 1505 1506 1505 1505 1505 1505 1505 1505 1504 1504 1504 1504 1503 1503 1503
1506 1506 1506 1506 1506 1506 1506 1505 1505 1505 1504 1504 1503 1504 1504 1504 1504 1505 1504 1504 1504 1503 1503 1502 1501 1501 1501 1501 1501 1501 1501 1501 1500 1500 1500 1500 1500 1500
1503 1503 1503 1503 1503 1503 1503 1502 1502 1501 1501 1501 1500 1500 1500 1500 1501 1501 1500 1500 1499 1498 1499 1498 1497 1497 1497 1497 1497 1497 1497 1497 1497 1496 1496 1496 1497 1497
1499 1499 1500 1500 1500 1500 1499 1499 1498 1497 1497 1497 1497 1496 1496 1496 1496 1496 1496 1496 1495 1494 1494 1495 1494 1494 1493 1493 1493 1493 1493 1493 1493 1493 1493 1493 1493 1493
1494 1495 1496 1496 1496 1496 1495 1495 1495 1495 1494 1493 1492 1492 1492 1491 1491 1492 1492 1492 1491 1490 1491 1491 1490 1490 1490 1489 1489 1489 1489 1489 1489 1489 1489 1489 1490 1490
1490 1491 1492 1492 1492 1491 1491 1491 1491 1491 1490 1489 1488 1488 1487 1487 1487 1487 1487 1487 1487 1487 1487 1486 1486 1485 1485 1484 1484 1484 1484 1484 1485 1485 1485 1486 1486 1486
1486 1487 1488 1488 1488 1487 1487 1487 1486 1486 1486 1485 1484 1483 1483 1483 1483 1482 1482 1482 1482 1482 1481 1481 1481 1481 1481 1480 1479 1479 1479 1480 1480 1480 1481 1481 1481 1482
1482 1483 1483 1483 1483 1482 1482 1482 1481 1481 1481 1480 1479 1479 1479 1478 1478 1478 1477 1477 1476 1476 1476 1477 1476 1476 1475 1475 1475 1474 1475 1474 1475 1475 1476 1476 1477 1477
1477 1478 1478 1478 1478 1477 1477 1477 1477 1477 1476 1475 1475 1474 1474 1473 1473 1473 1473 1472 1472 1471 1471 1471 1471 1471 1471 1471 1470 1470 1470 1470 1470 1471 1471 1471 1472 1472
1473 1472 1472 1472 1472 1472 1472 1472 1472 1471 1471 1471 1470 1469 1469 1468 1468 1468 1467 1467 1467 1466 1466 1466 1466 1466 1466 1466 1466 1465 1464 1465 1465 1465 1466 1466 1466 1467
1468 1467 1466 1466 1466 1466 1467 1466 1466 1466 1466 1465 1464 1464 1464 1463 1462 1462 1462 1462 1461 1461 1461 1461 1461 1461 1460 1459 1460 1461 1460 1460 1460 1460 1461 1461 1461 1462
1462 1462 1461 1461 1461 1461 1461 1461 1461 1460 1460 1459 1458 1458 1458 1457 1456 1456 1456 1456 1456 1456 1456 1456 1455 1455 1455 1455 1455 1455 1456 1455 1456 1456 1456 1456 1457 1457
1457 1457 1457 1456 1456 1456 1456 1456 1455 1455 1454 1453 1452 1452 1452 1451 1450 1450 1450 1450 1451 1450 1450 1450 1450 1451 1451 1450 1450 1449 1450 1450 1451 1451 1451 1451 1451 1451
1452 1452 1451 1451 1451 1451 1451 1450 1449 1449 1448 1447 1446 1446 1446 1445 1445 1445 1445 1445 1445 1445 1445 1445 1446 1446 1445 1445 1444 1444 1445 1445 1446 1446 1447 1447 1447 1446
1447 1447 1446 1446 1446 1446 1445 1444 1444 1443 1442 1441 1441 1440 1440 1440 1439 1439 1439 1439 1440 1440 1440 1440 1440 1440 1440 1440 1440 1440 1440 1440 1440 1441 1441 1442 1443 1443